Time,TemperatureF,DewpointF,PressureIn,WindDirection,WindDirectionDegrees,WindSpeedMPH,WindSpeedGustMPH,Humidity,HourlyPrecipIn,Conditions,Clouds,dailyrainin,SoftwareType,DateUTC
2013-12-22 00:01:00,69.7,66.0,30.16,SW,215,8.3,20.7,88,0.00,BKN,,0.00,WeatherDisplay:10.37,2013-12-22 05:01:00,
2013-12-22 00:06:00,69.7,66.0,30.17,SSE,148,7.9,13.8,88,0.00,BKN,,0.00,WeatherDisplay:10.37,2013-12-22 05:06:00,
2013-12-22 00:11:00,69.7,66.0,30.17,South,190,8.3,15.0,88,0.00,BKN,,0.00,WeatherDisplay:10.37,2013-12-22 05:11:00,
2013-12-22 00:16:00,69.8,66.1,30.17,SE,142,6.7,15.0,88,0.00,BKN,,0.00,WeatherDisplay:10.37,2013-12-22 05:16:00,
2013-12-22 00:21:00,69.8,66.1,30.17,SE,132,8.5,19.6,88,0.00,BKN,,0.00,WeatherDisplay:10.37,2013-12-22 05:21:00,
2013-12-22 00:26:00,69.8,66.1,30.17,SSW,192,9.4,13.8,88,0.00,BKN,,0.00,WeatherDisplay:10.37,2013-12-22 05:26:00,
2013-12-22 00:31:00,69.8,66.1,30.17,South,171,10.2,15.0,88,0.00,BKN,,0.00,WeatherDisplay:10.37,2013-12-22 05:31:00,
2013-12-22 00:36:00,69.8,66.1,30.17,SSW,195,8.8,12.7,88,0.00,BKN,,0.00,WeatherDisplay:10.37,2013-12-22 05:36:00,
2013-12-22 00:41:00,69.8,66.1,30.17,SSW,192,6.7,9.2,88,0.00,BKN,,0.00,WeatherDisplay:10.37,2013-12-22 05:41:00,
2013-12-22 00:46:00,69.6,65.9,30.17,SSW,192,5.0,12.7,88,0.00,BKN,,0.00,WeatherDisplay:10.37,2013-12-22 05:46:00,
2013-12-22 00:51:00,69.6,66.2,30.16,SSE,160,9.8,12.7,89,0.00,OVC,,0.00,WeatherDisplay:10.37,2013-12-22 05:51:00,
2013-12-22 00:56:00,69.6,66.2,30.16,South,182,6.6,10.4,89,0.00,OVC,,0.00,WeatherDisplay:10.37,2013-12-22 05:56:00,
2013-12-22 01:01:00,69.5,66.1,30.16,South,171,7.2,9.2,89,0.00,OVC,,0.00,WeatherDisplay:10.37,2013-12-22 06:01:00,
2013-12-22 01:06:00,69.5,66.1,30.16,South,191,8.0,17.3,89,0.00,BKN,,0.00,WeatherDisplay:10.37,2013-12-22 06:06:00,
2013-12-22 01:11:00,69.4,66.0,30.16,South,186,7.8,11.5,89,0.00,BKN,,0.00,WeatherDisplay:10.37,2013-12-22 06:11:00,
2013-12-22 01:16:00,69.4,66.0,30.16,SSE,159,5.0,9.2,89,0.00,BKN,,0.00,WeatherDisplay:10.37,2013-12-22 06:16:00,
2013-12-22 01:21:00,69.4,66.0,30.16,SSE,157,5.9,11.5,89,0.00,BKN,,0.00,WeatherDisplay:10.37,2013-12-22 06:21:00,
2013-12-22 01:26:00,69.3,66.2,30.16,SSW,194,6.9,11.5,90,0.00,BKN,,0.00,WeatherDisplay:10.37,2013-12-22 06:26:00,
2013-12-22 01:31:00,69.3,66.2,30.16,SSE,166,8.4,11.5,90,0.00,BKN,,0.00,WeatherDisplay:10.37,2013-12-22 06:31:00,
2013-12-22 01:36:00,69.3,66.2,30.16,South,178,8.1,16.1,90,0.00,BKN,,0.00,WeatherDisplay:10.37,2013-12-22 06:36:00,
2013-12-22 01:41:00,69.3,66.2,30.16,SSE,157,7.5,11.5,90,0.00,BKN,,0.00,WeatherDisplay:10.37,2013-12-22 06:41:00,
2013-12-22 01:46:00,69.2,66.1,30.16,SSE,153,5.1,11.5,90,0.00,BKN,,0.00,WeatherDisplay:10.37,2013-12-22 06:46:00,
2013-12-22 01:51:00,69.1,66.4,30.16,South,171,7.4,11.0,91,0.00,BKN,,0.00,WeatherDisplay:10.37,2013-12-22 06:51:00,
2013-12-22 01:56:00,69.1,66.4,30.16,SSE,164,8.2,11.5,91,0.00,BKN,,0.00,WeatherDisplay:10.37,2013-12-22 06:56:00,
2013-12-22 01:59:00,69.0,66.3,30.16,South,191,7.4,11.5,91,0.00,BKN,,0.00,WeatherDisplay:10.37,2013-12-22 06:59:00,
2013-12-22 02:04:00,69.0,66.3,30.16,South,184,5.2,17.3,91,0.00,OVC,,0.00,WeatherDisplay:10.37,2013-12-22 07:04:00,
2013-12-22 02:09:00,69.0,66.3,30.16,SSE,161,7.8,11.5,91,0.00,OVC,,0.00,WeatherDisplay:10.37,2013-12-22 07:09:00,
2013-12-22 02:14:00,69.0,66.3,30.16,SSW,198,6.0,10.4,91,0.00,OVC,,0.00,WeatherDisplay:10.37,2013-12-22 07:14:00,
2013-12-22 02:19:00,69.1,66.4,30.16,South,182,5.3,8.1,91,0.00,OVC,,0.00,WeatherDisplay:10.37,2013-12-22 07:19:00,
2013-12-22 02:24:00,69.1,66.4,30.16,South,188,9.7,11.5,91,0.00,OVC,,0.00,WeatherDisplay:10.37,2013-12-22 07:24:00,
2013-12-22 02:29:00,69.2,66.5,30.16,South,184,7.4,11.5,91,0.00,OVC,,0.00,WeatherDisplay:10.37,2013-12-22 07:29:00,
2013-12-22 02:34:00,69.3,66.6,30.16,South,190,6.4,12.0,91,0.00,OVC,,0.00,WeatherDisplay:10.37,2013-12-22 07:34:00,
2013-12-22 02:39:00,69.4,66.7,30.16,South,186,4.8,9.2,91,0.00,OVC,,0.00,WeatherDisplay:10.37,2013-12-22 07:39:00,
2013-12-22 02:44:00,69.4,66.7,30.16,South,183,8.3,11.5,91,0.00,OVC,,0.00,WeatherDisplay:10.37,2013-12-22 07:44:00,
2013-12-22 02:49:00,69.5,66.4,30.16,SSE,167,7.7,11.5,90,0.00,OVC,,0.00,WeatherDisplay:10.37,2013-12-22 07:49:00,
2013-12-22 02:54:00,69.6,66.5,30.16,South,182,5.9,11.5,90,0.00,OVC,,0.00,WeatherDisplay:10.37,2013-12-22 07:54:00,
2013-12-22 02:59:00,69.7,66.6,30.16,South,177,5.2,8.1,90,0.00,OVC,,0.00,WeatherDisplay:10.37,2013-12-22 07:59:00,
2013-12-22 03:04:00,69.7,66.6,30.16,SSE,162,6.3,10.4,90,0.00,OVC,,0.00,WeatherDisplay:10.37,2013-12-22 08:04:00,
2013-12-22 03:09:00,69.7,66.6,30.16,South,191,3.9,8.1,90,0.00,OVC,,0.00,WeatherDisplay:10.37,2013-12-22 08:09:00,
2013-12-22 03:14:00,69.8,66.7,30.16,SSE,149,6.9,11.0,90,0.00,OVC,,0.00,WeatherDisplay:10.37,2013-12-22 08:14:00,
2013-12-22 03:19:00,69.8,66.7,30.15,South,171,5.4,9.2,90,0.00,OVC,,0.00,WeatherDisplay:10.37,2013-12-22 08:19:00,
2013-12-22 03:24:00,69.9,66.8,30.16,SSW,199,5.3,8.1,90,0.00,OVC,,0.00,WeatherDisplay:10.37,2013-12-22 08:24:00,
2013-12-22 03:29:00,69.9,66.8,30.16,South,179,7.4,11.5,90,0.00,OVC,,0.00,WeatherDisplay:10.37,2013-12-22 08:29:00,
2013-12-22 03:34:00,69.9,66.8,30.16,South,180,5.9,10.4,90,0.00,OVC,,0.00,WeatherDisplay:10.37,2013-12-22 08:34:00,
2013-12-22 03:39:00,70.0,66.9,30.16,South,190,5.0,9.2,90,0.00,OVC,,0.00,WeatherDisplay:10.37,2013-12-22 08:39:00,
2013-12-22 03:44:00,70.0,66.9,30.16,SSW,194,6.5,9.2,90,0.00,OVC,,0.00,WeatherDisplay:10.37,2013-12-22 08:44:00,
2013-12-22 03:49:00,70.0,66.9,30.16,SSW,192,4.4,8.1,90,0.00,OVC,,0.00,WeatherDisplay:10.37,2013-12-22 08:49:00,
2013-12-22 03:54:00,70.0,66.9,30.16,SSW,211,7.0,11.5,90,0.00,OVC,,0.00,WeatherDisplay:10.37,2013-12-22 08:54:00,
2013-12-22 03:59:00,70.0,66.9,30.16,SSW,194,5.4,8.1,90,0.00,OVC,,0.00,WeatherDisplay:10.37,2013-12-22 08:59:00,
2013-12-22 04:04:00,70.1,67.0,30.16,SSW,192,6.4,10.0,90,0.00,OVC,,0.00,WeatherDisplay:10.37,2013-12-22 09:04:00,
2013-12-22 04:09:00,70.1,67.0,30.16,SE,146,4.8,6.9,90,0.00,OVC,,0.00,WeatherDisplay:10.37,2013-12-22 09:09:00,
2013-12-22 04:14:00,70.0,66.9,30.16,South,177,5.7,9.2,90,0.00,OVC,,0.00,WeatherDisplay:10.37,2013-12-22 09:14:00,
2013-12-22 04:19:00,69.9,66.8,30.16,South,171,6.2,9.2,90,0.00,OVC,,0.00,WeatherDisplay:10.37,2013-12-22 09:19:00,
2013-12-22 04:24:00,69.9,66.8,30.16,SW,222,4.8,6.9,90,0.00,OVC,,0.00,WeatherDisplay:10.37,2013-12-22 09:24:00,
2013-12-22 04:29:00,69.9,66.8,30.17,SW,221,4.8,11.5,90,0.00,OVC,,0.00,WeatherDisplay:10.37,2013-12-22 09:29:00,
2013-12-22 04:34:00,69.9,66.8,30.16,SSW,192,3.6,6.9,90,0.00,OVC,,0.00,WeatherDisplay:10.37,2013-12-22 09:34:00,
2013-12-22 04:39:00,69.9,66.8,30.16,SSW,195,5.7,7.0,90,0.00,OVC,,0.00,WeatherDisplay:10.37,2013-12-22 09:39:00,
2013-12-22 04:44:00,69.8,66.7,30.16,South,188,5.7,6.9,90,0.00,OVC,,0.00,WeatherDisplay:10.37,2013-12-22 09:44:00,
2013-12-22 04:49:00,69.9,66.8,30.16,SE,139,7.4,11.5,90,0.00,-RA,,0.00,WeatherDisplay:10.37,2013-12-22 09:49:00,
2013-12-22 04:54:00,69.8,67.1,30.16,South,171,4.3,10.4,91,0.00,-RA,,0.00,WeatherDisplay:10.37,2013-12-22 09:54:00,
2013-12-22 04:59:00,69.7,67.0,30.16,SSE,153,5.0,5.8,91,0.00,-RA,,0.00,WeatherDisplay:10.37,2013-12-22 09:59:00,
2013-12-22 05:04:00,69.6,66.9,30.15,South,173,6.0,10.4,91,0.00,OVC,,0.00,WeatherDisplay:10.37,2013-12-22 10:04:00,
2013-12-22 05:09:00,69.6,66.9,30.15,SSE,166,3.8,8.1,91,0.00,OVC,,0.00,WeatherDisplay:10.37,2013-12-22 10:09:00,
2013-12-22 05:14:00,69.5,66.8,30.15,SSW,198,3.3,6.9,91,0.00,OVC,,0.00,WeatherDisplay:10.37,2013-12-22 10:14:00,
2013-12-22 05:19:00,69.5,66.8,30.15,SSE,165,4.3,6.9,91,0.00,OVC,,0.00,WeatherDisplay:10.37,2013-12-22 10:19:00,
2013-12-22 05:24:00,69.5,66.8,30.15,SSW,197,5.4,10.4,91,0.00,OVC,,0.00,WeatherDisplay:10.37,2013-12-22 10:24:00,
2013-12-22 05:29:00,69.5,67.1,30.15,SE,130,3.5,6.0,92,0.00,OVC,,0.00,WeatherDisplay:10.37,2013-12-22 10:29:00,
2013-12-22 05:34:00,69.4,67.0,30.15,SSE,161,5.0,8.1,92,0.00,-RA,,0.00,WeatherDisplay:10.37,2013-12-22 10:34:00,
2013-12-22 05:39:00,69.4,67.0,30.15,South,179,5.2,6.9,92,0.00,-RA,,0.00,WeatherDisplay:10.37,2013-12-22 10:39:00,
2013-12-22 05:44:00,69.5,66.8,30.15,South,190,3.7,6.9,91,0.00,-RA,,0.00,WeatherDisplay:10.37,2013-12-22 10:44:00,
2013-12-22 05:49:00,69.4,67.0,30.15,South,172,3.6,5.8,92,0.00,-RA,,0.00,WeatherDisplay:10.37,2013-12-22 10:49:00,
2013-12-22 05:54:00,69.4,67.0,30.16,SSE,165,6.7,11.5,92,0.00,-RA,,0.00,WeatherDisplay:10.37,2013-12-22 10:54:00,
2013-12-22 05:59:00,69.4,67.0,30.16,SSW,207,5.0,5.0,92,0.00,-RA,,0.00,WeatherDisplay:10.37,2013-12-22 10:59:00,
2013-12-22 06:04:00,69.3,66.9,30.16,South,180,4.8,9.2,92,0.00,OVC,,0.00,WeatherDisplay:10.37,2013-12-22 11:04:00,
2013-12-22 06:09:00,69.3,67.2,30.16,SSW,194,7.0,11.5,93,0.00,OVC,,0.00,WeatherDisplay:10.37,2013-12-22 11:09:00,
2013-12-22 06:14:00,69.2,67.1,30.16,South,183,5.3,8.1,93,0.00,OVC,,0.00,WeatherDisplay:10.37,2013-12-22 11:14:00,
2013-12-22 06:19:00,69.2,67.1,30.16,South,184,5.2,8.1,93,0.00,OVC,,0.00,WeatherDisplay:10.37,2013-12-22 11:19:00,
2013-12-22 06:24:00,69.2,67.1,30.16,South,180,5.3,6.9,93,0.00,OVC,,0.00,WeatherDisplay:10.37,2013-12-22 11:24:00,
2013-12-22 06:29:00,69.1,67.0,30.16,South,190,4.6,9.2,93,0.00,OVC,,0.00,WeatherDisplay:10.37,2013-12-22 11:29:00,
2013-12-22 06:34:00,69.1,67.0,30.16,SSE,161,7.7,11.5,93,0.00,OVC,,0.00,WeatherDisplay:10.37,2013-12-22 11:34:00,
2013-12-22 06:39:00,69.2,67.1,30.16,SSE,161,5.9,10.4,93,0.00,OVC,,0.00,WeatherDisplay:10.37,2013-12-22 11:39:00,
2013-12-22 06:44:00,69.3,67.2,30.16,SSE,165,5.4,6.9,93,0.00,OVC,,0.00,WeatherDisplay:10.37,2013-12-22 11:44:00,
2013-12-22 06:49:00,69.4,67.3,30.16,South,184,7.9,11.5,93,0.00,OVC,,0.00,WeatherDisplay:10.37,2013-12-22 11:49:00,
2013-12-22 06:54:00,69.4,67.3,30.16,SSW,205,6.1,6.9,93,0.00,OVC,,0.00,WeatherDisplay:10.37,2013-12-22 11:54:00,
2013-12-22 06:59:00,69.4,67.3,30.15,SSW,195,4.9,6.9,93,0.00,OVC,,0.00,WeatherDisplay:10.37,2013-12-22 11:59:00,
2013-12-22 07:04:00,69.4,67.3,30.16,SSE,167,7.3,8.1,93,0.00,OVC,,0.00,WeatherDisplay:10.37,2013-12-22 12:04:00,
2013-12-22 07:09:00,69.4,67.3,30.16,SE,145,6.5,9.2,93,0.00,OVC,,0.00,WeatherDisplay:10.37,2013-12-22 12:09:00,
2013-12-22 07:14:00,69.4,67.3,30.16,SSW,202,4.5,6.9,93,0.00,OVC,,0.00,WeatherDisplay:10.37,2013-12-22 12:14:00,
2013-12-22 07:19:00,69.3,67.2,30.16,SSE,161,6.6,10.4,93,0.00,OVC,,0.00,WeatherDisplay:10.37,2013-12-22 12:19:00,
2013-12-22 07:24:00,69.3,67.2,30.16,SSW,208,6.0,11.5,93,0.00,OVC,,0.00,WeatherDisplay:10.37,2013-12-22 12:24:00,
2013-12-22 07:29:00,69.3,67.2,30.16,SSE,161,6.0,9.2,93,0.00,OVC,,0.00,WeatherDisplay:10.37,2013-12-22 12:29:00,
2013-12-22 07:34:00,69.4,67.3,30.16,South,190,5.8,8.1,93,0.00,OVC,,0.00,WeatherDisplay:10.37,2013-12-22 12:34:00,
2013-12-22 07:39:00,69.4,67.3,30.16,SSE,168,5.7,8.1,93,0.00,OVC,,0.00,WeatherDisplay:10.37,2013-12-22 12:39:00,
2013-12-22 07:44:00,69.4,67.3,30.16,South,179,3.8,8.1,93,0.00,OVC,,0.00,WeatherDisplay:10.37,2013-12-22 12:44:00,
2013-12-22 07:49:00,69.5,67.4,30.17,SSW,197,5.4,8.1,93,0.00,OVC,,0.00,WeatherDisplay:10.37,2013-12-22 12:49:00,
2013-12-22 07:54:00,69.6,67.5,30.17,South,181,4.0,4.6,93,0.00,OVC,,0.00,WeatherDisplay:10.37,2013-12-22 12:54:00,
2013-12-22 07:59:00,69.6,67.5,30.17,SSW,194,7.4,11.5,93,0.00,OVC,,0.00,WeatherDisplay:10.37,2013-12-22 12:59:00,
2013-12-22 08:04:00,69.7,67.3,30.17,SSW,196,4.9,10.4,92,0.00,OVC,,0.00,WeatherDisplay:10.37,2013-12-22 13:04:00,
2013-12-22 08:09:00,69.8,67.4,30.16,SSE,165,8.0,13.8,92,0.00,OVC,,0.00,WeatherDisplay:10.37,2013-12-22 13:09:00,
2013-12-22 08:14:00,70.1,67.3,30.17,SSE,165,5.0,8.0,91,0.00,OVC,,0.00,WeatherDisplay:10.37,2013-12-22 13:14:00,
2013-12-22 08:19:00,70.1,67.3,30.17,South,188,6.8,8.1,91,0.00,OVC,,0.00,WeatherDisplay:10.37,2013-12-22 13:19:00,
2013-12-22 08:24:00,70.1,67.3,30.17,South,170,5.7,8.0,91,0.00,OVC,,0.00,WeatherDisplay:10.37,2013-12-22 13:24:00,
2013-12-22 08:29:00,70.1,67.3,30.17,South,169,7.0,7.0,91,0.00,OVC,,0.00,WeatherDisplay:10.37,2013-12-22 13:29:00,
2013-12-22 08:34:00,70.0,67.3,30.17,South,174,7.0,10.4,91,0.00,OVC,,0.00,WeatherDisplay:10.37,2013-12-22 13:34:00,
2013-12-22 08:39:00,70.0,67.3,30.17,SSW,201,7.0,11.5,91,0.00,OVC,,0.00,WeatherDisplay:10.37,2013-12-22 13:39:00,
2013-12-22 08:44:00,70.1,67.3,30.18,South,172,6.6,9.0,91,0.00,OVC,,0.00,WeatherDisplay:10.37,2013-12-22 13:44:00,
2013-12-22 08:49:00,70.2,67.4,30.18,South,178,6.6,11.5,91,0.00,OVC,,0.00,WeatherDisplay:10.37,2013-12-22 13:49:00,
2013-12-22 08:54:00,70.2,67.4,30.18,South,169,3.4,6.9,91,0.00,OVC,,0.00,WeatherDisplay:10.37,2013-12-22 13:54:00,
2013-12-22 08:59:00,70.3,67.5,30.18,South,191,4.8,11.5,91,0.00,OVC,,0.00,WeatherDisplay:10.37,2013-12-22 13:59:00,
2013-12-22 09:04:00,70.4,67.3,30.19,South,184,4.5,8.1,90,0.00,OVC,,0.00,WeatherDisplay:10.37,2013-12-22 14:04:00,
2013-12-22 09:09:00,70.5,67.4,30.19,SSE,167,6.8,10.4,90,0.00,OVC,,0.00,WeatherDisplay:10.37,2013-12-22 14:09:00,
2013-12-22 09:14:00,70.7,67.6,30.19,SSE,168,5.5,8.1,90,0.00,OVC,,0.00,WeatherDisplay:10.37,2013-12-22 14:14:00,
2013-12-22 09:19:00,70.8,67.4,30.19,South,188,8.5,12.7,89,0.00,OVC,,0.00,WeatherDisplay:10.37,2013-12-22 14:19:00,
2013-12-22 09:24:00,70.8,67.4,30.20,South,180,4.7,6.9,89,0.00,OVC,,0.00,WeatherDisplay:10.37,2013-12-22 14:24:00,
2013-12-22 09:29:00,70.9,67.5,30.20,SSE,163,6.9,10.4,89,0.00,OVC,,0.00,WeatherDisplay:10.37,2013-12-22 14:29:00,
2013-12-22 09:34:00,70.9,67.5,30.20,South,171,5.6,9.2,89,0.00,OVC,,0.00,WeatherDisplay:10.37,2013-12-22 14:34:00,
2013-12-22 09:39:00,70.9,67.5,30.21,SSW,212,5.7,10.4,89,0.00,OVC,,0.00,WeatherDisplay:10.37,2013-12-22 14:39:00,
2013-12-22 09:44:00,71.0,67.3,30.21,SSE,159,9.3,13.8,88,0.00,OVC,,0.00,WeatherDisplay:10.37,2013-12-22 14:44:00,
2013-12-22 09:49:00,71.1,67.7,30.22,South,171,7.3,9.2,89,0.00,OVC,,0.00,WeatherDisplay:10.37,2013-12-22 14:49:00,
2013-12-22 09:54:00,71.2,67.5,30.22,SSE,158,7.8,8.1,88,0.00,OVC,,0.00,WeatherDisplay:10.37,2013-12-22 14:54:00,
2013-12-22 09:59:00,71.2,67.5,30.22,South,190,5.7,8.1,88,0.00,OVC,,0.00,WeatherDisplay:10.37,2013-12-22 14:59:00,
2013-12-22 10:04:00,71.2,67.5,30.22,South,170,7.3,12.7,88,0.00,-RA,,0.00,WeatherDisplay:10.37,2013-12-22 15:04:00,
2013-12-22 10:09:00,71.4,67.7,30.22,South,190,6.5,10.4,88,0.00,-RA,,0.00,WeatherDisplay:10.37,2013-12-22 15:09:00,
2013-12-22 10:14:00,71.5,67.4,30.22,SSE,163,10.3,13.8,87,0.00,-RA,,0.00,WeatherDisplay:10.37,2013-12-22 15:14:00,
2013-12-22 10:19:00,71.6,67.5,30.23,SE,141,7.9,11.5,87,0.00,OVC,,0.00,WeatherDisplay:10.37,2013-12-22 15:19:00,
2013-12-22 10:24:00,71.6,67.5,30.22,South,175,7.7,12.7,87,0.00,OVC,,0.00,WeatherDisplay:10.37,2013-12-22 15:24:00,
2013-12-22 10:29:00,71.6,67.5,30.23,SSE,159,6.3,11.5,87,0.00,OVC,,0.00,WeatherDisplay:10.37,2013-12-22 15:29:00,
2013-12-22 10:34:00,71.6,67.5,30.23,SSE,166,6.1,8.1,87,0.00,-RA,,0.00,WeatherDisplay:10.37,2013-12-22 15:34:00,
2013-12-22 10:39:00,71.6,67.5,30.23,South,171,7.4,9.2,87,0.00,-RA,,0.00,WeatherDisplay:10.37,2013-12-22 15:39:00,
2013-12-22 10:44:00,71.6,67.5,30.23,SSW,192,7.3,11.5,87,0.00,-RA,,0.00,WeatherDisplay:10.37,2013-12-22 15:44:00,
2013-12-22 10:49:00,71.7,67.6,30.23,SSE,163,8.4,11.5,87,0.00,-RA,,0.00,WeatherDisplay:10.37,2013-12-22 15:49:00,
2013-12-22 10:54:00,71.9,67.8,30.22,SSE,163,5.6,7.0,87,0.00,-RA,,0.00,WeatherDisplay:10.37,2013-12-22 15:54:00,
2013-12-22 10:59:00,72.1,67.7,30.22,South,190,6.7,8.0,86,0.00,-RA,,0.00,WeatherDisplay:10.37,2013-12-22 15:59:00,
2013-12-22 11:04:00,72.4,68.0,30.22,South,187,5.8,11.5,86,0.00,OVC,,0.00,WeatherDisplay:10.37,2013-12-22 16:04:00,
2013-12-22 11:09:00,72.6,67.8,30.22,SSE,167,7.5,11.5,85,0.00,OVC,,0.00,WeatherDisplay:10.37,2013-12-22 16:09:00,
2013-12-22 11:14:00,73.0,67.5,30.22,South,190,7.5,12.7,83,0.00,OVC,,0.00,WeatherDisplay:10.37,2013-12-22 16:14:00,
2013-12-22 11:19:00,73.0,67.5,30.21,SSE,161,7.1,11.5,83,0.00,OVC,,0.00,WeatherDisplay:10.37,2013-12-22 16:19:00,
2013-12-22 11:24:00,73.2,67.7,30.21,South,187,4.7,10.0,83,0.00,OVC,,0.00,WeatherDisplay:10.37,2013-12-22 16:24:00,
2013-12-22 11:29:00,73.6,67.8,30.21,SE,124,6.5,13.0,82,0.00,OVC,,0.00,WeatherDisplay:10.37,2013-12-22 16:29:00,
2013-12-22 11:34:00,74.0,67.1,30.21,SSE,162,9.3,18.4,79,0.00,OVC,,0.00,WeatherDisplay:10.37,2013-12-22 16:34:00,
2013-12-22 11:39:00,74.3,67.4,30.21,South,177,11.0,19.6,79,0.00,OVC,,0.00,WeatherDisplay:10.37,2013-12-22 16:39:00,
2013-12-22 11:44:00,74.5,67.2,30.21,SSE,158,9.9,19.6,78,0.00,OVC,,0.00,WeatherDisplay:10.37,2013-12-22 16:44:00,
2013-12-22 11:49:00,74.5,67.2,30.20,SSW,208,10.7,15.0,78,0.00,OVC,,0.00,WeatherDisplay:10.37,2013-12-22 16:49:00,
2013-12-22 11:54:00,74.8,67.5,30.20,South,190,6.1,11.5,78,0.00,OVC,,0.00,WeatherDisplay:10.37,2013-12-22 16:54:00,
2013-12-22 11:59:00,74.9,66.8,30.20,SSW,202,14.0,19.6,76,0.00,OVC,,0.00,WeatherDisplay:10.37,2013-12-22 16:59:00,
2013-12-22 12:04:00,74.8,66.7,30.20,SSE,161,9.2,13.8,76,0.00,OVC,,0.00,WeatherDisplay:10.37,2013-12-22 17:04:00,
2013-12-22 12:09:00,74.9,66.8,30.19,South,181,12.2,16.1,76,0.00,OVC,,0.00,WeatherDisplay:10.37,2013-12-22 17:09:00,
2013-12-22 12:14:00,75.0,66.9,30.19,SSW,202,6.3,13.8,76,0.00,OVC,,0.00,WeatherDisplay:10.37,2013-12-22 17:14:00,
2013-12-22 12:19:00,75.3,66.8,30.19,South,184,13.4,19.0,75,0.00,OVC,,0.00,WeatherDisplay:10.37,2013-12-22 17:19:00,
2013-12-22 12:24:00,75.1,66.2,30.19,SW,215,8.4,21.9,74,0.00,OVC,,0.00,WeatherDisplay:10.37,2013-12-22 17:24:00,
2013-12-22 12:29:00,75.0,66.5,30.19,South,178,5.7,11.5,75,0.00,OVC,,0.00,WeatherDisplay:10.37,2013-12-22 17:29:00,
2013-12-22 12:34:00,75.0,66.5,30.19,SSW,194,11.1,13.8,75,0.00,OVC,,0.00,WeatherDisplay:10.37,2013-12-22 17:34:00,
2013-12-22 12:39:00,75.2,66.7,30.18,SW,227,8.2,18.4,75,0.00,OVC,,0.00,WeatherDisplay:10.37,2013-12-22 17:39:00,
2013-12-22 12:44:00,75.4,66.1,30.18,SW,214,10.5,18.4,73,0.00,OVC,,0.00,WeatherDisplay:10.37,2013-12-22 17:44:00,
2013-12-22 12:49:00,75.5,66.2,30.18,South,185,14.8,25.3,73,0.00,OVC,,0.00,WeatherDisplay:10.37,2013-12-22 17:49:00,
2013-12-22 12:54:00,75.4,66.5,30.18,SW,214,5.8,8.1,74,0.00,OVC,,0.00,WeatherDisplay:10.37,2013-12-22 17:54:00,
2013-12-22 12:59:00,75.4,66.5,30.18,SSE,161,8.1,13.8,74,0.00,OVC,,0.00,WeatherDisplay:10.37,2013-12-22 17:59:00,
2013-12-22 13:04:00,75.3,66.0,30.17,SSW,194,8.5,15.0,73,0.00,BKN,,0.00,WeatherDisplay:10.37,2013-12-22 18:04:00,
2013-12-22 13:09:00,75.2,66.3,30.17,SSW,195,7.4,13.8,74,0.00,BKN,,0.00,WeatherDisplay:10.37,2013-12-22 18:09:00,
2013-12-22 13:14:00,75.3,66.4,30.17,SSE,161,11.8,17.3,74,0.00,BKN,,0.00,WeatherDisplay:10.37,2013-12-22 18:14:00,
2013-12-22 13:19:00,75.3,66.0,30.17,SSE,155,9.8,16.1,73,0.00,BKN,,0.00,WeatherDisplay:10.37,2013-12-22 18:19:00,
2013-12-22 13:24:00,75.3,66.0,30.17,SSW,205,7.2,10.4,73,0.00,BKN,,0.00,WeatherDisplay:10.37,2013-12-22 18:24:00,
2013-12-22 13:29:00,75.4,65.7,30.17,South,180,11.5,19.6,72,0.00,BKN,,0.00,WeatherDisplay:10.37,2013-12-22 18:29:00,
2013-12-22 13:34:00,75.4,65.7,30.16,SE,140,9.7,13.0,72,0.00,BKN,,0.00,WeatherDisplay:10.37,2013-12-22 18:34:00,
2013-12-22 13:39:00,75.7,66.0,30.16,South,190,7.7,11.5,72,0.00,BKN,,0.00,WeatherDisplay:10.37,2013-12-22 18:39:00,
2013-12-22 13:44:00,75.9,66.2,30.16,SE,128,8.2,12.7,72,0.00,BKN,,0.00,WeatherDisplay:10.37,2013-12-22 18:44:00,
2013-12-22 13:49:00,76.4,65.9,30.16,South,183,10.7,17.3,70,0.00,BKN,,0.00,WeatherDisplay:10.37,2013-12-22 18:49:00,
2013-12-22 13:54:00,76.4,65.9,30.15,SE,130,10.3,15.0,70,0.00,BKN,,0.00,WeatherDisplay:10.37,2013-12-22 18:54:00,
2013-12-22 13:59:00,76.2,65.7,30.15,SSE,165,9.5,16.1,70,0.00,BKN,,0.00,WeatherDisplay:10.37,2013-12-22 18:59:00,
2013-12-22 14:04:00,76.0,65.5,30.15,SSW,198,10.0,16.1,70,0.00,OVC,,0.00,WeatherDisplay:10.37,2013-12-22 19:04:00,
2013-12-22 14:09:00,75.8,65.3,30.15,SSE,167,7.9,12.7,70,0.00,OVC,,0.00,WeatherDisplay:10.37,2013-12-22 19:09:00,
2013-12-22 14:14:00,75.8,65.3,30.15,South,188,9.2,10.4,70,0.00,OVC,,0.00,WeatherDisplay:10.37,2013-12-22 19:14:00,
2013-12-22 14:19:00,75.9,65.0,30.16,South,175,8.9,15.0,69,0.00,OVC,,0.00,WeatherDisplay:10.37,2013-12-22 19:19:00,
2013-12-22 14:24:00,76.1,65.6,30.16,SW,216,5.1,6.9,70,0.00,OVC,,0.00,WeatherDisplay:10.37,2013-12-22 19:24:00,
2013-12-22 14:29:00,76.0,65.1,30.16,South,183,8.8,16.0,69,0.00,OVC,,0.00,WeatherDisplay:10.37,2013-12-22 19:29:00,
2013-12-22 14:34:00,75.8,64.9,30.16,SSE,168,6.6,10.4,69,0.00,OVC,,0.00,WeatherDisplay:10.37,2013-12-22 19:34:00,
2013-12-22 14:39:00,75.8,64.9,30.15,SSE,159,7.9,16.1,69,0.00,OVC,,0.00,WeatherDisplay:10.37,2013-12-22 19:39:00,
2013-12-22 14:44:00,75.8,64.9,30.15,SW,225,6.0,10.4,69,0.00,OVC,,0.00,WeatherDisplay:10.37,2013-12-22 19:44:00,
2013-12-22 14:49:00,75.8,64.5,30.15,SSE,161,12.3,19.6,68,0.00,OVC,,0.00,WeatherDisplay:10.37,2013-12-22 19:49:00,
2013-12-22 14:54:00,76.0,64.2,30.15,South,190,7.6,15.0,67,0.00,OVC,,0.00,WeatherDisplay:10.37,2013-12-22 19:54:00,
2013-12-22 14:59:00,76.0,64.2,30.15,SSW,194,7.3,15.0,67,0.00,OVC,,0.00,WeatherDisplay:10.37,2013-12-22 19:59:00,
2013-12-22 15:04:00,76.0,64.2,30.15,SSE,148,10.0,10.4,67,0.00,OVC,,0.00,WeatherDisplay:10.37,2013-12-22 20:04:00,
2013-12-22 15:09:00,75.8,64.1,30.16,SSW,199,10.0,11.5,67,0.00,OVC,,0.00,WeatherDisplay:10.37,2013-12-22 20:09:00,
2013-12-22 15:14:00,75.7,64.4,30.16,South,172,5.0,12.7,68,0.00,OVC,,0.00,WeatherDisplay:10.37,2013-12-22 20:14:00,
2013-12-22 15:19:00,75.5,64.6,30.16,SE,137,5.2,8.1,69,0.00,OVC,,0.00,WeatherDisplay:10.37,2013-12-22 20:19:00,
2013-12-22 15:24:00,75.5,64.2,30.15,South,183,7.0,10.0,68,0.00,OVC,,0.00,WeatherDisplay:10.37,2013-12-22 20:24:00,
2013-12-22 15:29:00,75.6,64.3,30.15,South,182,11.6,18.4,68,0.00,OVC,,0.00,WeatherDisplay:10.37,2013-12-22 20:29:00,
2013-12-22 15:34:00,75.6,64.3,30.15,SSW,195,6.9,9.2,68,0.00,OVC,,0.00,WeatherDisplay:10.37,2013-12-22 20:34:00,
2013-12-22 15:39:00,75.5,64.2,30.15,SSW,205,8.7,12.7,68,0.00,OVC,,0.00,WeatherDisplay:10.37,2013-12-22 20:39:00,
2013-12-22 15:44:00,75.4,64.1,30.15,South,187,9.2,11.5,68,0.00,OVC,,0.00,WeatherDisplay:10.37,2013-12-22 20:44:00,
2013-12-22 15:49:00,75.3,64.0,30.15,South,180,6.6,9.2,68,0.00,OVC,,0.00,WeatherDisplay:10.37,2013-12-22 20:49:00,
2013-12-22 15:54:00,75.3,64.4,30.15,SSE,152,4.1,6.9,69,0.00,OVC,,0.00,WeatherDisplay:10.37,2013-12-22 20:54:00,
2013-12-22 15:59:00,75.4,64.1,30.15,South,175,6.8,9.2,68,0.00,OVC,,0.00,WeatherDisplay:10.37,2013-12-22 20:59:00,
2013-12-22 16:04:00,75.5,64.2,30.15,SSW,196,5.9,11.5,68,0.00, +RA,,0.00,WeatherDisplay:10.37,2013-12-22 21:04:00,
2013-12-22 16:09:00,75.5,64.2,30.15,South,173,4.4,5.8,68,0.00, +RA,,0.00,WeatherDisplay:10.37,2013-12-22 21:09:00,
2013-12-22 16:14:00,75.4,64.1,30.15,South,174,5.9,8.1,68,0.00, +RA,,0.00,WeatherDisplay:10.37,2013-12-22 21:14:00,
2013-12-22 16:19:00,75.3,64.0,30.16,SSW,210,5.5,8.1,68,0.00, +RA,,0.00,WeatherDisplay:10.37,2013-12-22 21:19:00,
2013-12-22 16:24:00,75.3,64.4,30.17,WNW,294,4.1,8.1,69,0.00, +RA,,0.00,WeatherDisplay:10.37,2013-12-22 21:24:00,
2013-12-22 16:28:00,74.7,64.7,30.18,West,277,10.4,13.8,71,0.00, +RA,,0.00,WeatherDisplay:10.37,2013-12-22 21:28:00,
2013-12-22 16:33:00,73.0,64.2,30.18,West,281,11.4,18.4,74,0.00,-RA,,0.00,WeatherDisplay:10.37,2013-12-22 21:33:00,
2013-12-22 16:38:00,71.8,64.2,30.18,West,271,6.7,9.2,77,0.00,-RA,,0.00,WeatherDisplay:10.37,2013-12-22 21:38:00,
2013-12-22 16:43:00,70.8,64.0,30.18,WNW,288,4.2,10.4,79,0.00,-RA,,0.00,WeatherDisplay:10.37,2013-12-22 21:43:00,
2013-12-22 16:48:00,70.0,63.9,30.18,WNW,290,2.8,4.6,81,0.00,-RA,,0.00,WeatherDisplay:10.37,2013-12-22 21:48:00,
2013-12-22 16:53:00,69.3,63.9,30.18,NW,318,3.7,5.8,83,0.00,-RA,,0.00,WeatherDisplay:10.37,2013-12-22 21:53:00,
2013-12-22 16:58:00,68.7,64.0,30.17,NW,315,4.4,6.9,85,0.00,-RA,,0.00,WeatherDisplay:10.37,2013-12-22 21:58:00,
2013-12-22 17:03:00,68.3,63.9,30.17,NNE,14,2.0,4.6,86,0.00,-RA,,0.00,WeatherDisplay:10.37,2013-12-22 22:03:00,
2013-12-22 17:08:00,68.1,64.1,30.17,NW,304,1.0,2.3,87,0.00,-RA,,0.00,WeatherDisplay:10.37,2013-12-22 22:08:00,
2013-12-22 17:13:00,67.9,63.9,30.18,NW,307,0.8,2.3,87,0.00,-RA,,0.00,WeatherDisplay:10.37,2013-12-22 22:13:00,
2013-12-22 17:18:00,67.8,63.8,30.18,West,277,2.5,3.5,87,0.00,-RA,,0.00,WeatherDisplay:10.37,2013-12-22 22:18:00,
2013-12-22 17:23:00,67.7,64.0,30.18,WNW,294,2.3,3.5,88,0.00,-RA,,0.00,WeatherDisplay:10.37,2013-12-22 22:23:00,
2013-12-22 17:28:00,67.6,63.9,30.18,NNE,12,0.6,3.5,88,0.00,-RA,,0.00,WeatherDisplay:10.37,2013-12-22 22:28:00,
2013-12-22 17:33:00,67.5,63.8,30.19,NE,37,0.8,2.0,88,0.00,-RA,,0.00,WeatherDisplay:10.37,2013-12-22 22:33:00,
2013-12-22 17:38:00,67.4,63.7,30.19,NE,38,0.6,2.3,88,0.00,-RA,,0.00,WeatherDisplay:10.37,2013-12-22 22:38:00,
2013-12-22 17:43:00,67.4,64.0,30.19,NE,38,1.5,2.3,89,0.00,-RA,,0.00,WeatherDisplay:10.37,2013-12-22 22:43:00,
2013-12-22 17:48:00,67.2,63.8,30.20,WSW,258,2.8,3.5,89,0.00,-RA,,0.00,WeatherDisplay:10.37,2013-12-22 22:48:00,
2013-12-22 17:53:00,67.2,63.8,30.21,SW,215,3.4,6.0,89,0.00,-RA,,0.00,WeatherDisplay:10.37,2013-12-22 22:53:00,
2013-12-22 17:58:00,67.1,64.1,30.22,SW,223,6.8,6.9,90,0.05,-RA,,0.07,WeatherDisplay:10.37,2013-12-22 22:58:00,
2013-12-22 18:03:00,66.7,64.3,30.21,SE,142,3.1,4.6,92,0.15,RA,,0.15,WeatherDisplay:10.37,2013-12-22 23:03:00,
2013-12-22 18:08:00,66.4,64.3,30.21,SE,146,0.0,3.5,93,0.16,RA,,0.16,WeatherDisplay:10.37,2013-12-22 23:08:00,
2013-12-22 18:13:00,66.2,64.1,30.20,East,101,1.4,3.5,93,0.16,RA,,0.16,WeatherDisplay:10.37,2013-12-22 23:13:00,
2013-12-22 18:18:00,66.1,64.3,30.20,ESE,102,1.4,2.3,94,0.17,-RA,,0.17,WeatherDisplay:10.37,2013-12-22 23:18:00,
2013-12-22 18:23:00,66.0,64.2,30.20,ENE,77,1.7,2.3,94,0.17,-RA,,0.17,WeatherDisplay:10.37,2013-12-22 23:23:00,
2013-12-22 18:28:00,65.9,64.1,30.20,ESE,119,2.8,3.5,94,0.17,-RA,,0.17,WeatherDisplay:10.37,2013-12-22 23:28:00,
2013-12-22 18:33:00,65.8,64.0,30.20,SE,134,1.5,2.3,94,0.18,-RA,,0.18,WeatherDisplay:10.37,2013-12-22 23:33:00,
2013-12-22 18:38:00,65.8,64.3,30.21,SE,134,1.4,2.3,95,0.18,-RA,,0.18,WeatherDisplay:10.37,2013-12-22 23:38:00,
2013-12-22 18:43:00,65.8,64.3,30.21,SW,220,2.2,3.5,95,0.18,-RA,,0.18,WeatherDisplay:10.37,2013-12-22 23:43:00,
2013-12-22 18:48:00,65.7,64.2,30.21,WNW,292,1.5,3.5,95,0.18,-RA,,0.18,WeatherDisplay:10.37,2013-12-22 23:48:00,
2013-12-22 18:53:00,65.7,64.2,30.22,WSW,250,1.7,2.3,95,0.18,-RA,,0.18,WeatherDisplay:10.37,2013-12-22 23:53:00,
2013-12-22 18:58:00,65.6,64.1,30.22,West,272,2.4,3.5,95,0.13,-RA,,0.18,WeatherDisplay:10.37,2013-12-22 23:58:00,
2013-12-22 19:03:00,65.5,64.0,30.22,WSW,244,2.0,3.5,95,0.03,-RA,,0.19,WeatherDisplay:10.37,2013-12-23 00:03:00,
2013-12-22 19:08:00,65.5,64.3,30.22,SW,221,2.4,5.8,96,0.03,-RA,,0.19,WeatherDisplay:10.37,2013-12-23 00:08:00,
2013-12-22 19:13:00,65.5,64.0,30.22,SSW,192,3.3,4.6,95,0.03,-RA,,0.19,WeatherDisplay:10.37,2013-12-23 00:13:00,
2013-12-22 19:18:00,65.4,63.9,30.22,SSW,205,2.5,3.5,95,0.03,-RA,,0.20,WeatherDisplay:10.37,2013-12-23 00:18:00,
2013-12-22 19:23:00,65.5,64.0,30.22,SSW,200,4.1,5.0,95,0.03,-RA,,0.21,WeatherDisplay:10.37,2013-12-23 00:23:00,
2013-12-22 19:28:00,65.4,63.9,30.22,South,186,3.7,4.6,95,0.04,-RA,,0.21,WeatherDisplay:10.37,2013-12-23 00:28:00,
2013-12-22 19:33:00,65.4,63.9,30.21,SSW,194,1.4,3.5,95,0.04,-RA,,0.22,WeatherDisplay:10.37,2013-12-23 00:33:00,
2013-12-22 19:38:00,65.3,63.8,30.21,South,182,0.3,2.0,95,0.04,-RA,,0.22,WeatherDisplay:10.37,2013-12-23 00:38:00,
2013-12-22 19:43:00,65.3,63.8,30.22,SSW,197,2.4,3.5,95,0.04,-RA,,0.22,WeatherDisplay:10.37,2013-12-23 00:43:00,
2013-12-22 19:48:00,65.2,63.7,30.22,SSW,202,2.6,3.5,95,0.04,-RA,,0.22,WeatherDisplay:10.37,2013-12-23 00:48:00,
2013-12-22 19:53:00,65.2,63.7,30.21,South,176,1.3,2.3,95,0.04,-RA,,0.22,WeatherDisplay:10.37,2013-12-23 00:53:00,
2013-12-22 19:58:00,65.2,64.0,30.21,South,176,0.6,1.1,96,0.04,-RA,,0.22,WeatherDisplay:10.37,2013-12-23 00:58:00,
2013-12-22 20:03:00,65.1,63.9,30.21,South,176,0.4,1.1,96,0.04,OVC,,0.22,WeatherDisplay:10.37,2013-12-23 01:03:00,
2013-12-22 20:08:00,65.1,63.9,30.20,South,176,0.3,2.3,96,0.03,OVC,,0.22,WeatherDisplay:10.37,2013-12-23 01:08:00,
2013-12-22 20:13:00,65.0,63.8,30.20,WNW,302,2.3,3.5,96,0.03,OVC,,0.22,WeatherDisplay:10.37,2013-12-23 01:13:00,
2013-12-22 20:18:00,65.0,63.8,30.21,WSW,258,1.1,3.5,96,0.02, +RA,,0.22,WeatherDisplay:10.37,2013-12-23 01:18:00,
2013-12-22 20:23:00,64.9,63.7,30.21,SW,232,0.6,2.3,96,0.02, +RA,,0.22,WeatherDisplay:10.37,2013-12-23 01:23:00,
2013-12-22 20:28:00,64.9,63.4,30.20,WSW,245,0.6,2.0,95,0.01, +RA,,0.22,WeatherDisplay:10.37,2013-12-23 01:28:00,
2013-12-22 20:33:00,64.8,63.3,30.21,WSW,249,1.2,2.3,95,0.00,-RA,,0.22,WeatherDisplay:10.37,2013-12-23 01:33:00,
2013-12-22 20:38:00,64.8,63.6,30.21,WSW,255,1.4,3.5,96,0.00,-RA,,0.22,WeatherDisplay:10.37,2013-12-23 01:38:00,
2013-12-22 20:43:00,64.7,63.5,30.21,West,275,0.5,2.3,96,0.00,-RA,,0.22,WeatherDisplay:10.37,2013-12-23 01:43:00,
2013-12-22 20:48:00,64.7,63.5,30.21,West,272,1.6,2.3,96,0.00,-RA,,0.22,WeatherDisplay:10.37,2013-12-23 01:48:00,
2013-12-22 20:53:00,64.6,63.4,30.22,SSW,196,1.7,3.5,96,0.01,-RA,,0.23,WeatherDisplay:10.37,2013-12-23 01:53:00,
2013-12-22 20:58:00,64.6,63.4,30.21,WNW,296,1.8,3.5,96,0.02,-RA,,0.24,WeatherDisplay:10.37,2013-12-23 01:58:00,
2013-12-22 21:03:00,64.7,63.5,30.22,SW,214,2.3,3.5,96,0.04,RA,,0.27,WeatherDisplay:10.37,2013-12-23 02:03:00,
2013-12-22 21:08:00,64.6,63.4,30.21,West,275,2.6,3.5,96,0.09,RA,,0.31,WeatherDisplay:10.37,2013-12-23 02:08:00,
2013-12-22 21:13:00,64.6,63.4,30.22,SSW,212,3.1,5.0,96,0.12,RA,,0.34,WeatherDisplay:10.37,2013-12-23 02:13:00,
2013-12-22 21:18:00,64.5,63.3,30.22,SSE,149,1.8,3.5,96,0.14,RA,,0.36,WeatherDisplay:10.37,2013-12-23 02:18:00,
2013-12-22 21:23:00,64.4,63.2,30.22,SE,131,2.6,4.0,96,0.15,RA,,0.37,WeatherDisplay:10.37,2013-12-23 02:23:00,
2013-12-22 21:28:00,64.3,63.1,30.22,South,178,2.6,3.5,96,0.17,RA,,0.40,WeatherDisplay:10.37,2013-12-23 02:28:00,
2013-12-22 21:33:00,64.3,63.1,30.21,SSW,207,2.2,3.5,96,0.22,RA,,0.44,WeatherDisplay:10.37,2013-12-23 02:33:00,
2013-12-22 21:38:00,64.1,62.6,30.20,SSW,193,2.7,4.0,95,0.25,RA,,0.48,WeatherDisplay:10.37,2013-12-23 02:38:00,
2013-12-22 21:43:00,64.0,62.5,30.20,SSW,208,4.7,6.9,95,0.28,RA,,0.50,WeatherDisplay:10.37,2013-12-23 02:43:00,
2013-12-22 21:48:00,64.0,62.5,30.20,South,189,4.2,5.8,95,0.29,RA,,0.51,WeatherDisplay:10.37,2013-12-23 02:48:00,
2013-12-22 21:53:00,64.0,62.5,30.21,South,175,4.4,8.1,95,0.29,RA,,0.52,WeatherDisplay:10.37,2013-12-23 02:53:00,
2013-12-22 21:58:00,64.0,62.8,30.20,SSE,154,2.9,4.0,96,0.29,RA,,0.54,WeatherDisplay:10.37,2013-12-23 02:58:00,
2013-12-22 22:03:00,64.0,62.8,30.20,SSW,192,2.6,4.6,96,0.29,-RA,,0.55,WeatherDisplay:10.37,2013-12-23 03:03:00,
2013-12-22 22:08:00,64.0,62.8,30.20,South,175,2.9,3.5,96,0.25,-RA,,0.56,WeatherDisplay:10.37,2013-12-23 03:08:00,
2013-12-22 22:13:00,64.0,62.8,30.20,SSE,151,2.9,4.6,96,0.22,-RA,,0.56,WeatherDisplay:10.37,2013-12-23 03:13:00,
2013-12-22 22:18:00,64.0,62.8,30.20,SE,142,4.3,6.9,96,0.20,-RA,,0.56,WeatherDisplay:10.37,2013-12-23 03:18:00,
2013-12-22 22:23:00,64.0,62.8,30.20,SSE,165,3.4,5.8,96,0.19,-RA,,0.56,WeatherDisplay:10.37,2013-12-23 03:23:00,
2013-12-22 22:28:00,64.1,62.9,30.21,South,178,4.0,4.0,96,0.17,-RA,,0.56,WeatherDisplay:10.37,2013-12-23 03:28:00,
2013-12-22 22:33:00,64.1,62.9,30.21,SSW,208,4.4,6.0,96,0.12,-RA,,0.56,WeatherDisplay:10.37,2013-12-23 03:33:00,
2013-12-22 22:38:00,64.1,62.9,30.21,South,190,3.4,4.0,96,0.10,-RA,,0.57,WeatherDisplay:10.37,2013-12-23 03:38:00,
2013-12-22 22:43:00,64.0,62.8,30.22,South,187,2.7,3.5,96,0.07,-RA,,0.57,WeatherDisplay:10.37,2013-12-23 03:43:00,
2013-12-22 22:48:00,64.0,62.8,30.21,SE,132,2.4,3.5,96,0.06,-RA,,0.57,WeatherDisplay:10.37,2013-12-23 03:48:00,
2013-12-22 22:53:00,64.0,62.8,30.21,South,169,2.9,3.5,96,0.05,-RA,,0.57,WeatherDisplay:10.37,2013-12-23 03:53:00,
2013-12-22 22:58:00,64.0,62.8,30.21,SSW,200,2.7,3.5,96,0.04,-RA,,0.57,WeatherDisplay:10.37,2013-12-23 03:58:00,
2013-12-22 23:03:00,64.0,62.8,30.20,SSE,157,0.4,3.5,96,0.02,OVC,,0.57,WeatherDisplay:10.37,2013-12-23 04:03:00,
2013-12-22 23:08:00,64.0,62.8,30.20,ESE,121,2.2,3.5,96,0.01,OVC,,0.57,WeatherDisplay:10.37,2013-12-23 04:08:00,
2013-12-22 23:13:00,64.0,63.1,30.20,SSE,147,2.1,3.5,97,0.01,OVC,,0.57,WeatherDisplay:10.37,2013-12-23 04:13:00,
2013-12-22 23:18:00,64.0,63.1,30.20,SE,127,1.3,3.0,97,0.01,OVC,,0.57,WeatherDisplay:10.37,2013-12-23 04:18:00,
2013-12-22 23:23:00,63.9,63.0,30.20,SSE,165,1.7,3.5,97,0.01,OVC,,0.57,WeatherDisplay:10.37,2013-12-23 04:23:00,
2013-12-22 23:28:00,64.0,63.1,30.21,SSE,168,2.1,3.5,97,0.01,OVC,,0.57,WeatherDisplay:10.37,2013-12-23 04:28:00,
2013-12-22 23:33:00,64.0,63.1,30.21,SSE,166,1.7,3.5,97,0.01,OVC,,0.57,WeatherDisplay:10.37,2013-12-23 04:33:00,
2013-12-22 23:38:00,64.0,63.1,30.22,South,188,1.2,3.5,97,0.00,OVC,,0.57,WeatherDisplay:10.37,2013-12-23 04:38:00,
2013-12-22 23:43:00,64.0,63.1,30.21,SSE,161,2.2,3.5,97,0.00,OVC,,0.57,WeatherDisplay:10.37,2013-12-23 04:43:00,
2013-12-22 23:48:00,64.0,63.1,30.21,SE,128,1.5,3.5,97,0.00,OVC,,0.57,WeatherDisplay:10.37,2013-12-23 04:48:00,
2013-12-22 23:53:00,64.0,63.1,30.21,SE,138,1.7,3.5,97,0.00,OVC,,0.57,WeatherDisplay:10.37,2013-12-23 04:53:00,
2013-12-22 23:58:00,64.0,63.1,30.20,SE,146,1.8,3.5,97,0.00,OVC,,0.58,WeatherDisplay:10.37,2013-12-23 04:58:00,